Regional Weather Roundup
Issued by NWS San Angelo, TX

Home | Current Version | Previous Version | Text Only | Print | Product List | Glossary On
Versions: 1 2 3 4 5 6 7 8 9 10 11 12 13 14 15 16 17 18 19 20 21 22 23 24 25 26 27 28 29 30 31 32 33 34 35 36 37 38 39 40 41 42 43 44 45 46 47 48 49 50
048
ASUS44 KSJT 231911
RWRSJT
WEST CENTRAL TEXAS REGIONAL WEATHER ROUNDUP
NATIONAL WEATHER SERVICE SAN ANGELO TX
200 PM CDT SAT JUL 23 2016

NOTE: "FAIR" INDICATES FEW OR NO CLOUDS BELOW 12,000 FEET WITH NO
SIGNIFICANT WEATHER AND/OR OBSTRUCTIONS TO VISIBILITY.

TXZ049-054-064>066-071>073-076>078-098-099-113-114-127-128-139-140-
154-155-168>170-232000
...LOCATIONS ACROSS WEST CENTRAL TEXAS...

CITY           SKY/WX    TMP DP  RH WIND       PRES   REMARKS
SAN ANGELO     MOSUNNY   97  63  32 SE12G20   29.99F
ABILENE        MOSUNNY   96  64  34 S7G18     29.99F
DYESS AFB      CLOUDY    98  65  34 SE15G21   29.97F
JUNCTION       SUNNY     96  63  33 MISG      29.99F
SWEETWATER     MOSUNNY   94  61  32 S13G20    30.04F
BROWNWOOD      LGT RAIN  97  63  32 S12G18    29.98F
COLEMAN        CLEAR     96  60  30 SE9G17    29.99F
SONORA         SUNNY     93  63  36 S6G16     30.05F
OZONA          FAIR      93  61  33 S8G20     30.04F
BRADY          NOT AVBL
$$

TEXAS PANHANDLE/OKLAHOMA PANHANDLE

CITY           SKY/WX    TMP DP  RH WIND       PRES   REMARKS
AMARILLO       SUNNY     97  52  21 S16G24    30.05F
BORGER         SUNNY    100  50  18 S15G24    29.99F
CANADIAN       SUNNY     99  58  25 S15G22    29.95F
DALHART        SUNNY    101  50  18 S17G28    30.03F
DUMAS          CLEAR     99  51  19 SW17G24   30.02F
GUYMON         NOT AVBL
HEREFORD       CLEAR    N/A N/A N/A S13G24    30.07F
PAMPA          CLEAR     98  51  20 SW16G22   30.03F
PERRYTON       SUNNY    103  50  16 S20G28    29.97F
$$

SOUTHERN PANHANDLE/SOUTH PLAINS/ROLLING PLAINS

CITY           SKY/WX    TMP DP  RH WIND       PRES   REMARKS
LUBBOCK        MOSUNNY   95  53  24 S21       30.04F
SNYDER           N/A     94  62  33 S7G17     30.02F
CHILDRESS      SUNNY     99  59  26 SE8G18    29.95F
SEMINOLE       CLEAR     95  51  21 S16       30.05F
$$

PERMIAN BASIN

CITY           SKY/WX    TMP DP  RH WIND       PRES   REMARKS
MIDLAND        SUNNY     98  55  23 S17G25    30.01F
ODESSA         SUNNY     97  56  25 S17G23    30.02F
WINK           SUNNY     99  53  21 SE10G20   29.96F
$$

FAR WEST/SOUTHWEST MOUNTAINS/TRANS PECOS

CITY           SKY/WX    TMP DP  RH WIND       PRES   REMARKS
ALPINE         MOCLDY    93  51  24 SE7       30.16F
DRYDEN           N/A     98  62  30 MISG      29.97F
EL PASO        MOSUNNY   99  46  16 S8        30.03F
FORT STOCKTON  SUNNY     97  55  24 SE16G22   30.00F
GUADALUPE PASS SUNNY     94  48  20 SW17G25   30.18F
MARFA          MOSUNNY   90  53  28 S10       30.16F
PECOS          CLEAR     99  50  19 S7        29.95F
$$

DALLAS/FORT WORTH METROPLEX

CITY           SKY/WX    TMP DP  RH WIND       PRES   REMARKS
DFW AIRPORT    MOSUNNY   99  68  36 SW12      29.94F
FTW MEACHAM    SUNNY    101  68  34 S10G21    29.94F
DAL-EXECUTIVE  SUNNY     96  68  39 VRB6      29.96F
GRAND PRAIRIE  SUNNY     99  66  34 SE9       29.97F
ADDISON        SUNNY     97  68  38 S8        29.97F
MESQUITE       CLEAR     97  70  41 SE3       29.96F
LANCASTER      PTCLDY    99  69  37 S8        29.97S
$$

NORTH CENTRAL TEXAS

CITY           SKY/WX    TMP DP  RH WIND       PRES   REMARKS
SHRMAN/DENISON PTCLDY    99  69  37 S9G16     29.97F
GAINESVILLE    SUNNY     96  69  41 S13       29.98F
BRIDGEPORT     CLEAR     96  68  40 SW5       29.97F
DENTON         SUNNY     97  69  40 SW9       29.95F
WAXAHACHIE     CLEAR     97  70  42 S7        29.98F
GRANBURY       CLEAR    100  64  31 S5        29.96F
$$

WESTERN NORTH TEXAS

CITY           SKY/WX    TMP DP  RH WIND       PRES   REMARKS
WICHITA FALLS  SUNNY     99  65  32 S7G17     29.93F
VERNON         CLEAR    100  53  20 S7        29.94F
BRECKENRIDGE   CLEAR     98  61  28 S10G16    29.96F
COMANCHE       SUNNY     97  65  35 S10G16    29.99F
$$

CENTRAL AND SOUTH CENTRAL TEXAS

CITY           SKY/WX    TMP DP  RH WIND       PRES   REMARKS
AUSTIN/BERGSTM MOSUNNY   96  68  39 S8        29.96F
WACO           SUNNY     98  67  36 S10       29.96F
HILLSBORO      CLEAR     95  69  42 S8        29.97F
TEMPLE         SUNNY     97  69  40 S9        29.97F
KILLEEN-GRAY   MOSUNNY   96  64  34 VRB6      29.96F
FORT HOOD      SUNNY     96  66  36 SE7       29.95F
GEORGETOWN     SUNNY     97  63  32 S10       29.97F
LAGO VISTA     FAIR      95  63  34 S8        30.00F
SAN MARCOS     SUNNY     95  70  43 S9        29.99F
NEW BRAUNFELS  SUNNY     95  68  41 VRB7      29.95F
RANDOLPH AFB   PTSUNNY   93  67  42 VRB7      29.97F
SAN ANTONIO    MOSUNNY   93  68  43 SE10      29.98F
STINSON        SUNNY     97  67  37 E8        29.95F
PLEASANTON     NOT AVBL
LA GRANGE        N/A     96  73  46 S3        29.95F
GIDDINGS       PTCLDY    94  68  42 S5        30.01F
$$

EAST TEXAS

CITY           SKY/WX    TMP DP  RH WIND       PRES   REMARKS
PARIS          MOSUNNY  100  66  32 S9        29.96F
CLARKSVILLE    NOT AVBL
TYLER          SUNNY     98  70  40 S9        29.97F
LONGVIEW       MOSUNNY   98  72  42 CALM      29.95F
PALESTINE      PTCLDY    95  71  46 CALM      29.99S
NACOGDOCHES    SUNNY    N/A N/A N/A SW6       29.96F
$$

TEXAS HILL COUNTRY AND EDWARDS PLATEAU

CITY           SKY/WX    TMP DP  RH WIND       PRES   REMARKS
LLANO          CLEAR    100  61  27 S9        29.99F
HORSESHOE BAY  FAIR      96  64  34 S5        29.98F
KERRVILLE      SUNNY     92  66  41 S10G16    30.02F
FREDERICKSBRG  SUNNY     93  58  30 SE8       30.01F
ROCKSPRINGS    PTCLDY    93  64  38 S9G16     30.06F
HONDO          SUNNY     95  64  35 S13G18    29.98F
UVALDE         CLEAR     94  66  39 S8        29.97F
DEL RIO        SUNNY     99  63  30 SE14G26   29.93F
$$

SOUTHEAST TEXAS

CITY           SKY/WX    TMP DP  RH WIND       PRES   REMARKS
COLLEGE STN    MOSUNNY   95  71  45 SE8       29.97F
CALDWELL       PTCLDY    93  64  38 CALM      30.00F
CROCKETT       MOCLDY    95  72  46 SE7       30.00F
BRENHAM        SUNNY     95  69  42 CALM      29.97F
HUNTSVILLE     MOSUNNY   96  68  39 VRB3      29.98S
CONROE         PTSUNNY   94  69  44 SE5       29.97F
HOUSTON BUSH   MOSUNNY   94  71  47 CALM      29.96F
HOUSTON HOBBY  MOSUNNY   95  72  47 VRB3      29.95F
PERLAND        MOSUNNY   95  71  45 VRB3      29.97F
WHARTON        PTCLDY    97  71  43 CALM      29.96F
$$

THE UPPER TEXAS COAST

CITY           SKY/WX    TMP DP  RH WIND       PRES   REMARKS
ORANGE         LGT RAIN  83  77  81 SE7       30.00S
PORT ARTHUR    TSTM      84  77  79 S8        29.98S
GALVESTON      MOSUNNY   90  78  68 SE12      29.99F
ANGLETON       PTSUNNY   95  74  50 S13G20    29.96F
BAY CITY       PTCLDY    96  72  46 SE3       29.97F
$$

TEXAS COASTAL BEND, RIO GRANDE PLAINS DEEP SOUTH TEXAS

CITY           SKY/WX    TMP DP  RH WIND       PRES   REMARKS
VICTORIA       SUNNY     97  68  38 VRB6      29.95F
BEEVILLE       FAIR      97  71  43 S9        29.95F
ROCKPORT       SUNNY     93  74  53 SE13      29.95F
PORT ARANSAS   CLEAR     90  78  66 SE10      29.97S
PORT LAVACA    CLEAR     93  79  64 E13       29.95F
CORPUS CHRISTI MOSUNNY   95  77  55 E13G23    29.94F
KINGSVILLE NAS MOSUNNY   98  76  49 VRB6      29.93F
COTULLA        SUNNY     99  63  30 S8G18     29.93F
LAREDO         SUNNY    100  68  35 E12G17    29.92F
BROWNSVILLE    MOSUNNY   95  75  52 SE14G21   29.95F
PORT ISABEL    SUNNY     92  76  59 SE16      29.95F
HEBBRONVILLE   PTCLDY    96  65  35 S8G17     29.95F
MCALLEN        MOSUNNY  100  72  40 SE12G18   29.93F
WESLACO        MOSUNNY   92  -2   3 S13       29.93F
FALFURRIAS       N/A     96  67  38 SE8       29.93F
EDINBURG       PTCLDY   100  68  35 S3        29.94F
$$




USA.gov is the U.S. government's official web portal to all federal, state and local government web resources and services.